Time,TemperatureF,DewpointF,PressureIn,WindDirection,WindDirectionDegrees,WindSpeedMPH,WindSpeedGustMPH,Humidity,HourlyPrecipIn,Conditions,Clouds,dailyrainin,SolarRadiationWatts/m^2,SoftwareType,DateUTC
2013-02-02 00:00:00,26.0,18.4,30.37,SW,230,4.0,-999.0,79,-99.99,,,0.01,0.0,cwc,2013-02-02 07:00:00,
2013-02-02 00:05:00,25.8,18.2,30.37,SW,231,2.0,-999.0,79,-99.99,,,0.00,0.0,cwc,2013-02-02 07:05:00,
2013-02-02 00:10:00,25.8,18.2,30.36,SW,231,0.0,-999.0,79,-99.99,,,0.00,0.0,cwc,2013-02-02 07:10:00,
2013-02-02 00:15:00,25.7,18.1,30.36,SW,231,2.0,-999.0,79,-99.99,,,0.00,0.0,cwc,2013-02-02 07:15:00,
2013-02-02 00:20:00,25.5,18.3,30.36,SW,230,2.0,-999.0,80,-99.99,,,0.00,0.0,cwc,2013-02-02 07:20:00,
2013-02-02 00:25:00,25.4,18.2,30.37,SW,231,0.0,-999.0,80,-99.99,,,0.00,0.0,cwc,2013-02-02 07:25:00,
2013-02-02 00:30:00,25.3,18.1,30.37,SW,231,2.0,-999.0,80,-99.99,,,0.00,0.0,cwc,2013-02-02 07:30:00,
2013-02-02 00:35:00,25.3,18.1,30.37,SW,230,0.0,-999.0,80,-99.99,,,0.00,0.0,cwc,2013-02-02 07:35:00,
2013-02-02 00:40:00,25.2,18.0,30.37,SW,230,2.0,-999.0,80,-99.99,,,0.00,0.0,cwc,2013-02-02 07:40:00,
2013-02-02 00:45:00,25.0,17.8,30.38,SW,231,3.0,-999.0,80,-99.99,,,0.00,0.0,cwc,2013-02-02 07:45:00,
2013-02-02 00:55:00,25.2,18.4,30.38,SW,230,2.0,-999.0,81,-99.99,,,0.00,0.0,cwc,2013-02-02 07:55:00,
2013-02-02 01:00:00,25.3,18.1,30.38,SW,231,2.0,-999.0,80,-99.99,,,0.00,0.0,cwc,2013-02-02 08:00:00,
2013-02-02 01:10:00,25.2,18.0,30.39,SW,230,2.0,-999.0,80,-99.99,,,0.00,0.0,cwc,2013-02-02 08:10:00,
2013-02-02 01:15:00,25.1,17.9,30.39,SW,230,3.0,-999.0,80,-99.99,,,0.00,0.0,cwc,2013-02-02 08:15:00,
2013-02-02 01:20:00,24.9,17.3,30.39,SW,231,1.0,-999.0,79,-99.99,,,0.00,0.0,cwc,2013-02-02 08:20:00,
2013-02-02 01:25:00,24.7,17.1,30.39,SW,231,1.0,-999.0,79,-99.99,,,0.00,0.0,cwc,2013-02-02 08:25:00,
2013-02-02 01:30:00,24.5,16.9,30.40,SW,231,0.0,-999.0,79,-99.99,,,0.00,0.0,cwc,2013-02-02 08:30:00,
2013-02-02 01:35:00,24.2,17.0,30.40,SW,230,2.0,-999.0,80,-99.99,,,0.00,0.0,cwc,2013-02-02 08:35:00,
2013-02-02 01:40:00,23.9,17.1,30.40,SW,231,1.0,-999.0,81,-99.99,,,0.00,0.0,cwc,2013-02-02 08:40:00,
2013-02-02 01:45:00,23.7,16.9,30.40,SW,231,4.0,-999.0,81,-99.99,,,0.00,0.0,cwc,2013-02-02 08:45:00,
2013-02-02 01:50:00,23.6,17.1,30.41,SW,231,0.0,-999.0,82,-99.99,,,0.00,0.0,cwc,2013-02-02 08:50:00,
2013-02-02 01:55:00,23.8,17.3,30.41,SW,230,1.0,-999.0,82,-99.99,,,0.00,0.0,cwc,2013-02-02 08:55:00,
2013-02-02 02:10:00,24.2,17.7,30.41,SW,230,2.0,-999.0,82,-99.99,,,0.00,0.0,cwc,2013-02-02 09:10:00,
2013-02-02 02:15:00,24.2,17.7,30.42,SW,231,3.0,-999.0,82,-99.99,,,0.00,0.0,cwc,2013-02-02 09:15:00,
2013-02-02 02:20:00,24.3,17.8,30.41,SW,231,2.0,-999.0,82,-99.99,,,0.00,0.0,cwc,2013-02-02 09:20:00,
2013-02-02 02:25:00,24.3,17.5,30.42,SW,231,2.0,-999.0,81,-99.99,,,0.00,0.0,cwc,2013-02-02 09:25:00,
2013-02-02 02:30:00,24.0,16.8,30.42,SW,230,1.0,-999.0,80,-99.99,,,0.00,0.0,cwc,2013-02-02 09:30:00,
2013-02-02 02:35:00,23.8,17.0,30.42,SW,231,2.0,-999.0,81,-99.99,,,0.00,0.0,cwc,2013-02-02 09:35:00,
2013-02-02 02:40:00,23.6,17.1,30.42,SW,231,2.0,-999.0,82,-99.99,,,0.00,0.0,cwc,2013-02-02 09:40:00,
2013-02-02 02:45:00,23.5,17.0,30.42,SW,230,3.0,-999.0,82,-99.99,,,0.00,0.0,cwc,2013-02-02 09:45:00,
2013-02-02 02:50:00,23.4,17.3,30.42,SW,230,2.0,-999.0,83,-99.99,,,0.00,0.0,cwc,2013-02-02 09:50:00,
2013-02-02 02:55:00,23.5,17.4,30.42,SW,231,0.0,-999.0,83,-99.99,,,0.00,0.0,cwc,2013-02-02 09:55:00,
2013-02-02 03:00:00,23.6,17.1,30.42,SW,231,0.0,-999.0,82,-99.99,,,0.00,0.0,cwc,2013-02-02 10:00:00,
2013-02-02 03:05:00,23.5,17.0,30.42,SW,231,0.0,-999.0,82,-99.99,,,0.00,0.0,cwc,2013-02-02 10:05:00,
2013-02-02 03:15:00,23.1,16.6,30.43,SW,231,0.0,-999.0,82,-99.99,,,0.00,0.0,cwc,2013-02-02 10:15:00,
2013-02-02 03:20:00,22.9,16.4,30.42,SW,230,1.0,-999.0,82,-99.99,,,0.00,0.0,cwc,2013-02-02 10:20:00,
2013-02-02 03:25:00,22.8,16.7,30.42,SW,230,1.0,-999.0,83,-99.99,,,0.00,0.0,cwc,2013-02-02 10:25:00,
2013-02-02 03:30:00,22.6,16.5,30.43,SW,231,2.0,-999.0,83,-99.99,,,0.00,0.0,cwc,2013-02-02 10:30:00,
2013-02-02 03:35:00,22.4,16.6,30.43,SW,231,2.0,-999.0,84,-99.99,,,0.00,0.0,cwc,2013-02-02 10:35:00,
2013-02-02 03:40:00,22.5,16.7,30.42,SW,231,3.0,-999.0,84,-99.99,,,0.00,0.0,cwc,2013-02-02 10:40:00,
2013-02-02 03:45:00,22.6,16.8,30.43,SW,230,0.0,-999.0,84,-99.99,,,0.00,0.0,cwc,2013-02-02 10:45:00,
2013-02-02 03:50:00,22.8,17.4,30.43,SW,232,3.0,-999.0,85,-99.99,,,0.00,0.0,cwc,2013-02-02 10:50:00,
2013-02-02 03:55:00,23.3,17.9,30.43,SW,232,2.0,-999.0,85,-99.99,,,0.00,0.0,cwc,2013-02-02 10:55:00,
2013-02-02 04:00:00,23.9,18.1,30.43,SW,232,1.0,-999.0,84,-99.99,,,0.00,0.0,cwc,2013-02-02 11:00:00,
2013-02-02 04:05:00,24.2,17.7,30.43,SW,232,0.0,-999.0,82,-99.99,,,0.00,0.0,cwc,2013-02-02 11:05:00,
2013-02-02 04:10:00,24.1,17.3,30.43,SW,232,0.0,-999.0,81,-99.99,,,0.00,0.0,cwc,2013-02-02 11:10:00,
2013-02-02 04:15:00,23.9,16.7,30.43,SW,232,0.0,-999.0,80,-99.99,,,0.00,0.0,cwc,2013-02-02 11:15:00,
2013-02-02 04:20:00,23.7,16.5,30.43,SW,232,0.0,-999.0,80,-99.99,,,0.00,0.0,cwc,2013-02-02 11:20:00,
2013-02-02 04:25:00,23.4,16.6,30.43,SW,232,0.0,-999.0,81,-99.99,,,0.00,0.0,cwc,2013-02-02 11:25:00,
2013-02-02 04:30:00,23.1,16.3,30.43,SW,232,0.0,-999.0,81,-99.99,,,0.00,0.0,cwc,2013-02-02 11:30:00,
2013-02-02 04:35:00,22.9,16.1,30.43,SW,232,0.0,-999.0,81,-99.99,,,0.00,0.0,cwc,2013-02-02 11:35:00,
2013-02-02 04:40:00,22.6,15.8,30.43,SW,232,0.0,-999.0,81,-99.99,,,0.00,0.0,cwc,2013-02-02 11:40:00,
2013-02-02 04:45:00,22.3,15.5,30.43,SW,232,0.0,-999.0,81,-99.99,,,0.00,0.0,cwc,2013-02-02 11:45:00,
2013-02-02 04:50:00,22.0,15.5,30.43,SW,232,0.0,-999.0,82,-99.99,,,0.00,0.0,cwc,2013-02-02 11:50:00,
2013-02-02 04:55:00,21.6,15.1,30.43,SW,232,0.0,-999.0,82,-99.99,,,0.00,0.0,cwc,2013-02-02 11:55:00,
2013-02-02 05:00:00,21.1,14.6,30.43,SW,232,0.0,-999.0,82,-99.99,,,0.00,0.0,cwc,2013-02-02 12:00:00,
2013-02-02 05:05:00,20.7,14.6,30.43,SW,232,3.0,-999.0,83,-99.99,,,0.00,0.0,cwc,2013-02-02 12:05:00,
2013-02-02 05:10:00,20.7,15.3,30.44,SW,232,3.0,-999.0,85,-99.99,,,0.00,0.0,cwc,2013-02-02 12:10:00,
2013-02-02 05:15:00,20.9,15.9,30.44,SW,232,2.0,-999.0,86,-99.99,,,0.00,0.0,cwc,2013-02-02 12:15:00,
2013-02-02 05:20:00,21.0,16.0,30.44,SW,232,0.0,-999.0,86,-99.99,,,0.00,0.0,cwc,2013-02-02 12:20:00,
2013-02-02 05:25:00,21.0,16.0,30.44,SW,232,0.0,-999.0,86,-99.99,,,0.00,0.0,cwc,2013-02-02 12:25:00,
2013-02-02 05:30:00,20.9,15.9,30.45,SW,232,0.0,-999.0,86,-99.99,,,0.00,0.0,cwc,2013-02-02 12:30:00,
2013-02-02 05:35:00,20.9,15.9,30.44,SW,232,0.0,-999.0,86,-99.99,,,0.00,0.0,cwc,2013-02-02 12:35:00,
2013-02-02 05:40:00,21.2,16.5,30.44,SW,232,2.0,-999.0,87,-99.99,,,0.00,0.0,cwc,2013-02-02 12:40:00,
2013-02-02 05:45:00,21.0,15.2,30.44,SW,232,1.0,-999.0,84,-99.99,,,0.00,0.0,cwc,2013-02-02 12:45:00,
2013-02-02 05:50:00,20.6,14.8,30.44,SW,232,2.0,-999.0,84,-99.99,,,0.00,0.0,cwc,2013-02-02 12:50:00,
2013-02-02 05:55:00,20.3,14.9,30.45,SW,232,2.0,-999.0,85,-99.99,,,0.00,0.0,cwc,2013-02-02 12:55:00,
2013-02-02 06:00:00,20.2,15.2,30.45,SW,232,0.0,-999.0,86,-99.99,,,0.00,0.0,cwc,2013-02-02 13:00:00,
2013-02-02 06:05:00,20.0,15.0,30.45,SW,232,0.0,-999.0,86,-99.99,,,0.00,0.0,cwc,2013-02-02 13:05:00,
2013-02-02 06:10:00,19.8,14.4,30.45,SW,232,2.0,-999.0,85,-99.99,,,0.00,0.0,cwc,2013-02-02 13:10:00,
2013-02-02 06:15:00,19.8,15.1,30.45,SW,232,0.0,-999.0,87,-99.99,,,0.00,0.0,cwc,2013-02-02 13:15:00,
2013-02-02 06:20:00,19.8,15.1,30.45,SW,232,0.0,-999.0,87,-99.99,,,0.00,0.0,cwc,2013-02-02 13:20:00,
2013-02-02 06:25:00,19.8,14.8,30.46,SW,232,0.0,-999.0,86,-99.99,,,0.00,0.0,cwc,2013-02-02 13:25:00,
2013-02-02 06:30:00,19.6,14.2,30.46,SW,232,1.0,-999.0,85,-99.99,,,0.00,0.0,cwc,2013-02-02 13:30:00,
2013-02-02 06:35:00,19.3,14.3,30.46,SW,232,0.0,-999.0,86,-99.99,,,0.00,0.0,cwc,2013-02-02 13:35:00,
2013-02-02 06:40:00,19.1,14.4,30.46,SW,232,2.0,-999.0,87,-99.99,,,0.00,0.0,cwc,2013-02-02 13:40:00,
2013-02-02 06:45:00,19.2,14.5,30.46,SW,232,1.0,-999.0,87,-99.99,,,0.00,0.0,cwc,2013-02-02 13:45:00,
2013-02-02 06:50:00,19.4,15.1,30.46,SW,232,0.0,-999.0,88,-99.99,,,0.00,0.0,cwc,2013-02-02 13:50:00,
2013-02-02 06:55:00,19.5,15.2,30.47,SW,232,0.0,-999.0,88,-99.99,,,0.00,0.0,cwc,2013-02-02 13:55:00,
2013-02-02 07:00:00,19.7,15.4,30.47,SW,232,2.0,-999.0,88,-99.99,,,0.00,0.0,cwc,2013-02-02 14:00:00,
2013-02-02 07:05:00,20.3,16.3,30.47,WSW,237,0.0,-999.0,89,-99.99,,,0.00,0.0,cwc,2013-02-02 14:05:00,
2013-02-02 07:10:00,20.6,15.9,30.47,WSW,237,3.0,-999.0,87,-99.99,,,0.00,0.0,cwc,2013-02-02 14:10:00,
2013-02-02 07:15:00,20.9,16.2,30.47,WSW,237,0.0,-999.0,87,-99.99,,,0.00,7.0,cwc,2013-02-02 14:15:00,
2013-02-02 07:20:00,20.8,14.7,30.47,WSW,237,1.0,-999.0,83,-99.99,,,0.00,12.0,cwc,2013-02-02 14:20:00,
2013-02-02 07:25:00,20.3,14.2,30.47,WSW,237,1.0,-999.0,83,-99.99,,,0.00,16.0,cwc,2013-02-02 14:25:00,
2013-02-02 07:30:00,19.9,14.1,30.47,WSW,237,1.0,-999.0,84,-99.99,,,0.00,21.0,cwc,2013-02-02 14:30:00,
2013-02-02 07:35:00,19.8,14.8,30.47,WSW,237,0.0,-999.0,86,-99.99,,,0.00,25.0,cwc,2013-02-02 14:35:00,
2013-02-02 07:40:00,19.9,14.9,30.47,WSW,237,0.0,-999.0,86,-99.99,,,0.00,28.0,cwc,2013-02-02 14:40:00,
2013-02-02 07:45:00,20.0,15.0,30.47,WSW,237,0.0,-999.0,86,-99.99,,,0.00,32.0,cwc,2013-02-02 14:45:00,
2013-02-02 07:50:00,20.0,15.0,30.47,WSW,237,0.0,-999.0,86,-99.99,,,0.00,37.0,cwc,2013-02-02 14:50:00,
2013-02-02 07:55:00,19.8,14.4,30.48,WSW,237,0.0,-999.0,85,-99.99,,,0.00,47.0,cwc,2013-02-02 14:55:00,
2013-02-02 08:00:00,19.7,14.3,30.47,WSW,237,0.0,-999.0,85,-99.99,,,0.00,51.0,cwc,2013-02-02 15:00:00,
2013-02-02 08:05:00,19.8,15.1,30.47,WSW,237,0.0,-999.0,87,-99.99,,,0.00,54.0,cwc,2013-02-02 15:05:00,
2013-02-02 08:10:00,20.2,15.5,30.47,WSW,238,1.0,-999.0,87,-99.99,,,0.00,60.0,cwc,2013-02-02 15:10:00,
2013-02-02 08:15:00,21.1,16.4,30.47,WSW,238,2.0,-999.0,87,-99.99,,,0.00,62.0,cwc,2013-02-02 15:15:00,
2013-02-02 08:20:00,22.0,16.6,30.47,WSW,238,2.0,-999.0,85,-99.99,,,0.00,65.0,cwc,2013-02-02 15:20:00,
2013-02-02 08:25:00,22.4,16.6,30.47,WSW,238,1.0,-999.0,84,-99.99,,,0.00,105.0,cwc,2013-02-02 15:25:00,
2013-02-02 08:30:00,22.7,16.6,30.48,WSW,240,3.0,-999.0,83,-99.99,,,0.00,188.0,cwc,2013-02-02 15:30:00,
2013-02-02 08:35:00,23.1,17.0,30.48,WSW,239,3.0,-999.0,83,-99.99,,,0.00,248.0,cwc,2013-02-02 15:35:00,
2013-02-02 08:40:00,23.5,17.0,30.48,WSW,239,2.0,-999.0,82,-99.99,,,0.00,258.0,cwc,2013-02-02 15:40:00,
2013-02-02 08:45:00,23.9,17.1,30.48,WSW,240,2.0,-999.0,81,-99.99,,,0.00,274.0,cwc,2013-02-02 15:45:00,
2013-02-02 08:55:00,25.4,17.8,30.48,WSW,253,4.0,-999.0,79,-99.99,,,0.00,329.0,cwc,2013-02-02 15:55:00,
2013-02-02 09:00:00,26.4,17.8,30.48,North,360,5.0,-999.0,76,-99.99,,,0.00,352.0,cwc,2013-02-02 16:00:00,
2013-02-02 09:05:00,27.4,18.8,30.48,North,9,0.0,-999.0,76,-99.99,,,0.00,369.0,cwc,2013-02-02 16:05:00,
2013-02-02 09:10:00,28.2,18.1,30.48,North,9,4.0,-999.0,72,-99.99,,,0.00,380.0,cwc,2013-02-02 16:10:00,
2013-02-02 09:15:00,28.8,18.7,30.47,NNW,333,3.0,-999.0,72,-99.99,,,0.00,397.0,cwc,2013-02-02 16:15:00,
2013-02-02 09:20:00,29.6,18.8,30.47,NNW,333,4.0,-999.0,70,-99.99,,,0.00,390.0,cwc,2013-02-02 16:20:00,
2013-02-02 09:25:00,30.3,18.8,30.47,NNW,333,2.0,-999.0,68,-99.99,,,0.00,406.0,cwc,2013-02-02 16:25:00,
2013-02-02 09:30:00,31.0,18.4,30.47,NNW,348,2.0,-999.0,65,-99.99,,,0.00,410.0,cwc,2013-02-02 16:30:00,
2013-02-02 09:35:00,31.5,18.9,30.47,NNW,348,1.0,-999.0,65,-99.99,,,0.00,418.0,cwc,2013-02-02 16:35:00,
2013-02-02 09:40:00,32.2,19.2,30.47,NNW,348,0.0,-999.0,64,-99.99,,,0.00,387.0,cwc,2013-02-02 16:40:00,
2013-02-02 09:45:00,32.7,19.7,30.47,NNW,348,2.0,-999.0,64,-99.99,,,0.00,401.0,cwc,2013-02-02 16:45:00,
2013-02-02 09:50:00,33.2,20.2,30.46,NNW,348,4.0,-999.0,64,-99.99,,,0.00,406.0,cwc,2013-02-02 16:50:00,
2013-02-02 09:55:00,33.5,20.2,30.46,North,355,6.0,-999.0,63,-99.99,,,0.00,461.0,cwc,2013-02-02 16:55:00,
2013-02-02 10:00:00,33.8,19.8,30.47,North,360,2.0,-999.0,61,-99.99,,,0.00,471.0,cwc,2013-02-02 17:00:00,
2013-02-02 10:05:00,34.4,20.0,30.46,North,5,4.0,-999.0,60,-99.99,,,0.00,455.0,cwc,2013-02-02 17:05:00,
2013-02-02 10:10:00,34.7,19.9,30.46,North,5,5.0,-999.0,59,-99.99,,,0.00,478.0,cwc,2013-02-02 17:10:00,
2013-02-02 10:15:00,35.1,20.3,30.46,NNE,13,4.0,-999.0,59,-99.99,,,0.00,466.0,cwc,2013-02-02 17:15:00,
2013-02-02 10:20:00,35.7,20.6,30.46,NNE,14,1.0,-999.0,58,-99.99,,,0.00,438.0,cwc,2013-02-02 17:20:00,
2013-02-02 10:25:00,36.3,21.2,30.45,NNE,15,1.0,-999.0,58,-99.99,,,0.00,520.0,cwc,2013-02-02 17:25:00,
2013-02-02 10:30:00,36.9,21.4,30.46,NNE,15,2.0,-999.0,57,-99.99,,,0.00,548.0,cwc,2013-02-02 17:30:00,
2013-02-02 10:35:00,37.4,21.6,30.45,NNE,26,3.0,-999.0,56,-99.99,,,0.00,577.0,cwc,2013-02-02 17:35:00,
2013-02-02 10:40:00,37.5,21.3,30.45,NNE,25,1.0,-999.0,55,-99.99,,,0.00,585.0,cwc,2013-02-02 17:40:00,
2013-02-02 10:45:00,37.7,21.9,30.45,NNE,26,1.0,-999.0,56,-99.99,,,0.00,598.0,cwc,2013-02-02 17:45:00,
2013-02-02 10:50:00,38.4,21.5,30.45,NNE,25,0.0,-999.0,53,-99.99,,,0.00,596.0,cwc,2013-02-02 17:50:00,
2013-02-02 10:55:00,39.1,22.2,30.45,NNE,25,0.0,-999.0,53,-99.99,,,0.00,622.0,cwc,2013-02-02 17:55:00,
2013-02-02 11:00:00,39.9,23.0,30.44,NNE,25,5.0,-999.0,53,-99.99,,,0.00,577.0,cwc,2013-02-02 18:00:00,
2013-02-02 11:05:00,40.5,23.2,30.44,NE,39,5.0,-999.0,52,-99.99,,,0.00,608.0,cwc,2013-02-02 18:05:00,
2013-02-02 11:10:00,41.0,23.4,30.44,NE,35,2.0,-999.0,51,-99.99,,,0.00,585.0,cwc,2013-02-02 18:10:00,
2013-02-02 11:15:00,41.5,23.5,30.44,NE,42,2.0,-999.0,50,-99.99,,,0.00,617.0,cwc,2013-02-02 18:15:00,
2013-02-02 11:20:00,41.9,23.5,30.44,NE,44,3.0,-999.0,49,-99.99,,,0.00,638.0,cwc,2013-02-02 18:20:00,
2013-02-02 11:30:00,42.8,23.7,30.43,NE,53,3.0,-999.0,47,-99.99,,,0.00,631.0,cwc,2013-02-02 18:30:00,
2013-02-02 11:35:00,43.3,24.2,30.42,NE,55,6.0,-999.0,47,-99.99,,,0.00,650.0,cwc,2013-02-02 18:35:00,
2013-02-02 11:40:00,43.7,23.9,30.42,NE,55,4.0,-999.0,45,-99.99,,,0.00,652.0,cwc,2013-02-02 18:40:00,
2013-02-02 11:45:00,44.1,24.3,30.42,NE,44,5.0,-999.0,45,-99.99,,,0.00,636.0,cwc,2013-02-02 18:45:00,
2013-02-02 11:55:00,44.7,23.8,30.42,ENE,63,7.0,-999.0,42,-99.99,,,0.00,650.0,cwc,2013-02-02 18:55:00,
2013-02-02 12:00:00,45.1,23.9,30.42,ENE,60,11.0,-999.0,41,-99.99,,,0.00,622.0,cwc,2013-02-02 19:00:00,
2013-02-02 12:10:00,46.0,24.8,30.41,ENE,65,3.0,-999.0,41,-99.99,,,0.00,649.0,cwc,2013-02-02 19:10:00,
2013-02-02 12:15:00,46.5,24.5,30.41,ENE,61,9.0,-999.0,39,-99.99,,,0.00,649.0,cwc,2013-02-02 19:15:00,
2013-02-02 12:20:00,46.7,24.0,30.40,ENE,59,12.0,-999.0,37,-99.99,,,0.00,612.0,cwc,2013-02-02 19:20:00,
2013-02-02 12:25:00,46.8,24.1,30.40,NNE,28,3.0,-999.0,37,-99.99,,,0.00,617.0,cwc,2013-02-02 19:25:00,
2013-02-02 12:30:00,47.1,24.1,30.40,ENE,63,7.0,-999.0,36,-99.99,,,0.00,631.0,cwc,2013-02-02 19:30:00,
2013-02-02 12:35:00,47.4,24.0,30.39,ENE,61,9.0,-999.0,35,-99.99,,,0.00,571.0,cwc,2013-02-02 19:35:00,
2013-02-02 12:40:00,47.5,23.7,30.39,ENE,61,5.0,-999.0,34,-99.99,,,0.00,601.0,cwc,2013-02-02 19:40:00,
2013-02-02 12:45:00,47.7,23.9,30.39,NE,49,6.0,-999.0,34,-99.99,,,0.00,580.0,cwc,2013-02-02 19:45:00,
2013-02-02 12:55:00,48.3,23.8,30.38,NE,54,4.0,-999.0,32,-99.99,,,0.00,554.0,cwc,2013-02-02 19:55:00,
2013-02-02 13:00:00,48.5,24.4,30.38,NE,56,5.0,-999.0,33,-99.99,,,0.00,575.0,cwc,2013-02-02 20:00:00,
2013-02-02 13:05:00,48.8,24.3,30.38,NE,51,1.0,-999.0,32,-99.99,,,0.00,598.0,cwc,2013-02-02 20:05:00,
2013-02-02 13:10:00,49.1,25.0,30.38,NE,44,6.0,-999.0,33,-99.99,,,0.00,536.0,cwc,2013-02-02 20:10:00,
2013-02-02 13:15:00,49.3,24.8,30.38,NE,39,4.0,-999.0,32,-99.99,,,0.00,557.0,cwc,2013-02-02 20:15:00,
2013-02-02 13:20:00,49.5,24.7,30.38,NE,50,2.0,-999.0,31,-99.99,,,0.00,563.0,cwc,2013-02-02 20:20:00,
2013-02-02 13:25:00,49.6,25.1,30.38,NNE,30,5.0,-999.0,32,-99.99,,,0.00,550.0,cwc,2013-02-02 20:25:00,
2013-02-02 13:30:00,49.8,25.0,30.38,NE,38,0.0,-999.0,31,-99.99,,,0.00,492.0,cwc,2013-02-02 20:30:00,
2013-02-02 13:35:00,50.0,25.2,30.37,NE,39,3.0,-999.0,31,-99.99,,,0.00,506.0,cwc,2013-02-02 20:35:00,
2013-02-02 13:40:00,50.1,24.5,30.37,NE,52,2.0,-999.0,29,-99.99,,,0.00,480.0,cwc,2013-02-02 20:40:00,
2013-02-02 13:45:00,50.2,25.0,30.37,NE,52,4.0,-999.0,30,-99.99,,,0.00,490.0,cwc,2013-02-02 20:45:00,
2013-02-02 13:50:00,50.3,25.1,30.37,NE,53,3.0,-999.0,30,-99.99,,,0.00,462.0,cwc,2013-02-02 20:50:00,
2013-02-02 13:55:00,50.6,25.4,30.37,NE,56,1.0,-999.0,30,-99.99,,,0.00,448.0,cwc,2013-02-02 20:55:00,
2013-02-02 14:00:00,50.6,24.7,30.36,NE,55,0.0,-999.0,28,-99.99,,,0.00,471.0,cwc,2013-02-02 21:00:00,
2013-02-02 14:10:00,51.0,24.7,30.36,ENE,58,5.0,-999.0,27,-99.99,,,0.00,457.0,cwc,2013-02-02 21:10:00,
2013-02-02 14:15:00,51.0,24.7,30.36,ENE,59,3.0,-999.0,27,-99.99,,,0.00,446.0,cwc,2013-02-02 21:15:00,
2013-02-02 14:20:00,51.3,25.0,30.36,ENE,59,1.0,-999.0,27,-99.99,,,0.00,420.0,cwc,2013-02-02 21:20:00,
2013-02-02 14:25:00,51.5,25.2,30.36,ENE,59,1.0,-999.0,27,-99.99,,,0.00,417.0,cwc,2013-02-02 21:25:00,
2013-02-02 14:30:00,51.9,25.6,30.36,NE,54,3.0,-999.0,27,-99.99,,,0.00,417.0,cwc,2013-02-02 21:30:00,
2013-02-02 14:40:00,52.1,25.1,30.36,NE,55,1.0,-999.0,25,-99.99,,,0.00,373.0,cwc,2013-02-02 21:40:00,
2013-02-02 14:45:00,52.1,25.5,30.36,NE,55,0.0,-999.0,26,-99.99,,,0.00,360.0,cwc,2013-02-02 21:45:00,
2013-02-02 14:50:00,52.3,25.7,30.36,NE,55,0.0,-999.0,26,-99.99,,,0.00,367.0,cwc,2013-02-02 21:50:00,
2013-02-02 14:55:00,52.6,25.6,30.35,NE,55,0.0,-999.0,25,-99.99,,,0.00,359.0,cwc,2013-02-02 21:55:00,
2013-02-02 15:00:00,53.0,26.4,30.35,NE,55,2.0,-999.0,26,-99.99,,,0.00,369.0,cwc,2013-02-02 22:00:00,
2013-02-02 15:05:00,53.3,26.7,30.35,NE,55,0.0,-999.0,26,-99.99,,,0.00,359.0,cwc,2013-02-02 22:05:00,
2013-02-02 15:10:00,53.7,27.4,30.35,NE,55,4.0,-999.0,27,-99.99,,,0.00,346.0,cwc,2013-02-02 22:10:00,
2013-02-02 15:15:00,53.6,27.0,30.35,NE,48,3.0,-999.0,26,-99.99,,,0.00,325.0,cwc,2013-02-02 22:15:00,
2013-02-02 15:25:00,53.0,26.7,30.35,NE,49,1.0,-999.0,27,-99.99,,,0.00,297.0,cwc,2013-02-02 22:25:00,
2013-02-02 15:30:00,53.0,27.1,30.35,NE,49,2.0,-999.0,28,-99.99,,,0.00,253.0,cwc,2013-02-02 22:30:00,
2013-02-02 15:35:00,53.1,26.8,30.35,NE,49,0.0,-999.0,27,-99.99,,,0.00,258.0,cwc,2013-02-02 22:35:00,
2013-02-02 15:40:00,53.7,27.8,30.34,NE,49,0.0,-999.0,28,-99.99,,,0.00,258.0,cwc,2013-02-02 22:40:00,
2013-02-02 15:45:00,54.1,27.8,30.34,NE,48,2.0,-999.0,27,-99.99,,,0.00,267.0,cwc,2013-02-02 22:45:00,
2013-02-02 15:50:00,54.1,27.1,30.34,NE,48,1.0,-999.0,25,-99.99,,,0.00,250.0,cwc,2013-02-02 22:50:00,
2013-02-02 15:55:00,53.9,27.3,30.34,NE,48,0.0,-999.0,26,-99.99,,,0.00,225.0,cwc,2013-02-02 22:55:00,
2013-02-02 16:00:00,53.7,27.1,30.34,NE,49,0.0,-999.0,26,-99.99,,,0.00,186.0,cwc,2013-02-02 23:00:00,
2013-02-02 16:05:00,53.6,27.0,30.33,NE,49,0.0,-999.0,26,-99.99,,,0.00,160.0,cwc,2013-02-02 23:05:00,
2013-02-02 16:10:00,53.5,27.2,30.34,NE,49,0.0,-999.0,27,-99.99,,,0.00,163.0,cwc,2013-02-02 23:10:00,
2013-02-02 16:15:00,53.8,26.8,30.33,NE,51,0.0,-999.0,25,-99.99,,,0.00,139.0,cwc,2013-02-02 23:15:00,
2013-02-02 16:20:00,54.1,26.7,30.33,NE,51,0.0,-999.0,24,-99.99,,,0.00,132.0,cwc,2013-02-02 23:20:00,
2013-02-02 16:25:00,54.3,27.3,30.33,NE,51,1.0,-999.0,25,-99.99,,,0.00,100.0,cwc,2013-02-02 23:25:00,
2013-02-02 16:30:00,53.9,27.3,30.34,NE,51,2.0,-999.0,26,-99.99,,,0.00,81.0,cwc,2013-02-02 23:30:00,
2013-02-02 16:35:00,53.1,26.8,30.34,NE,51,2.0,-999.0,27,-99.99,,,0.00,67.0,cwc,2013-02-02 23:35:00,
2013-02-02 16:40:00,52.2,25.6,30.33,NE,51,1.0,-999.0,26,-99.99,,,0.00,60.0,cwc,2013-02-02 23:40:00,
2013-02-02 16:45:00,51.5,25.6,30.33,NE,51,2.0,-999.0,28,-99.99,,,0.00,54.0,cwc,2013-02-02 23:45:00,
2013-02-02 16:50:00,50.9,26.1,30.33,NE,51,1.0,-999.0,31,-99.99,,,0.00,46.0,cwc,2013-02-02 23:50:00,
2013-02-02 16:55:00,49.9,25.4,30.33,NE,51,3.0,-999.0,32,-99.99,,,0.00,40.0,cwc,2013-02-02 23:55:00,
2013-02-02 17:00:00,48.8,25.0,30.33,NE,51,3.0,-999.0,34,-99.99,,,0.00,33.0,cwc,2013-02-03 00:00:00,
2013-02-02 17:05:00,47.8,24.4,30.34,NE,51,3.0,-999.0,35,-99.99,,,0.00,28.0,cwc,2013-02-03 00:05:00,
2013-02-02 17:10:00,46.9,23.5,30.34,NE,51,2.0,-999.0,35,-99.99,,,0.00,25.0,cwc,2013-02-03 00:10:00,
2013-02-02 17:15:00,46.2,23.2,30.34,NE,51,3.0,-999.0,36,-99.99,,,0.00,19.0,cwc,2013-02-03 00:15:00,
2013-02-02 17:20:00,45.5,22.8,30.34,NE,51,2.0,-999.0,37,-99.99,,,0.00,12.0,cwc,2013-02-03 00:20:00,
2013-02-02 17:25:00,45.0,22.3,30.34,NE,51,2.0,-999.0,37,-99.99,,,0.00,7.0,cwc,2013-02-03 00:25:00,
2013-02-02 17:30:00,44.4,22.1,30.34,NE,51,2.0,-999.0,38,-99.99,,,0.00,0.0,cwc,2013-02-03 00:30:00,
2013-02-02 17:40:00,43.4,21.8,30.35,NE,51,0.0,-999.0,40,-99.99,,,0.00,0.0,cwc,2013-02-03 00:40:00,
2013-02-02 17:45:00,42.8,20.8,30.35,NE,51,3.0,-999.0,39,-99.99,,,0.00,0.0,cwc,2013-02-03 00:45:00,
2013-02-02 17:50:00,42.3,20.3,30.35,NE,51,2.0,-999.0,39,-99.99,,,0.00,0.0,cwc,2013-02-03 00:50:00,
2013-02-02 17:55:00,42.0,20.0,30.35,NE,51,3.0,-999.0,39,-99.99,,,0.00,0.0,cwc,2013-02-03 00:55:00,
2013-02-02 18:00:00,41.9,20.7,30.35,NE,51,1.0,-999.0,41,-99.99,,,0.00,0.0,cwc,2013-02-03 01:00:00,
2013-02-02 18:05:00,41.2,20.7,30.35,NE,51,3.0,-999.0,43,-99.99,,,0.00,0.0,cwc,2013-02-03 01:05:00,
2013-02-02 18:10:00,40.1,20.3,30.36,NE,51,1.0,-999.0,45,-99.99,,,0.00,0.0,cwc,2013-02-03 01:10:00,
2013-02-02 18:15:00,39.3,19.1,30.36,NE,51,0.0,-999.0,44,-99.99,,,0.00,0.0,cwc,2013-02-03 01:15:00,
2013-02-02 18:20:00,38.9,19.8,30.37,NE,51,0.0,-999.0,47,-99.99,,,0.00,0.0,cwc,2013-02-03 01:20:00,
2013-02-02 18:25:00,38.4,19.3,30.37,NE,51,0.0,-999.0,47,-99.99,,,0.00,0.0,cwc,2013-02-03 01:25:00,
2013-02-02 18:30:00,38.0,18.2,30.37,NE,51,0.0,-999.0,45,-99.99,,,0.00,0.0,cwc,2013-02-03 01:30:00,
2013-02-02 18:35:00,37.7,19.0,30.37,NE,51,0.0,-999.0,48,-99.99,,,0.00,0.0,cwc,2013-02-03 01:35:00,
2013-02-02 18:40:00,36.9,19.3,30.37,NE,51,2.0,-999.0,51,-99.99,,,0.00,0.0,cwc,2013-02-03 01:40:00,
2013-02-02 18:45:00,35.7,18.1,30.38,NE,51,2.0,-999.0,51,-99.99,,,0.00,0.0,cwc,2013-02-03 01:45:00,
2013-02-02 18:55:00,34.7,18.1,30.38,NE,51,0.0,-999.0,54,-99.99,,,0.00,0.0,cwc,2013-02-03 01:55:00,
2013-02-02 19:00:00,34.3,18.5,30.38,NE,51,2.0,-999.0,56,-99.99,,,0.00,0.0,cwc,2013-02-03 02:00:00,
2013-02-02 19:05:00,33.5,18.4,30.38,NE,51,2.0,-999.0,58,-99.99,,,0.00,0.0,cwc,2013-02-03 02:05:00,
2013-02-02 19:10:00,32.8,18.0,30.39,NE,52,2.0,-999.0,59,-99.99,,,0.00,0.0,cwc,2013-02-03 02:10:00,
2013-02-02 19:15:00,32.7,17.9,30.39,NE,52,2.0,-999.0,59,-99.99,,,0.00,0.0,cwc,2013-02-03 02:15:00,
2013-02-02 19:25:00,32.5,17.4,30.40,NE,52,0.0,-999.0,58,-99.99,,,0.00,0.0,cwc,2013-02-03 02:25:00,
2013-02-02 19:30:00,32.3,17.9,30.40,NE,52,2.0,-999.0,60,-99.99,,,0.00,0.0,cwc,2013-02-03 02:30:00,
2013-02-02 19:35:00,31.9,18.2,30.40,NE,52,3.0,-999.0,62,-99.99,,,0.00,0.0,cwc,2013-02-03 02:35:00,
2013-02-02 19:40:00,31.7,17.7,30.40,NE,52,3.0,-999.0,61,-99.99,,,0.00,0.0,cwc,2013-02-03 02:40:00,
2013-02-02 19:45:00,31.6,17.9,30.40,NE,52,3.0,-999.0,62,-99.99,,,0.00,0.0,cwc,2013-02-03 02:45:00,
2013-02-02 19:50:00,31.6,17.9,30.41,NE,52,3.0,-999.0,62,-99.99,,,0.00,0.0,cwc,2013-02-03 02:50:00,
2013-02-02 20:00:00,31.6,17.6,30.41,NE,52,2.0,-999.0,61,-99.99,,,0.00,0.0,cwc,2013-02-03 03:00:00,
2013-02-02 20:05:00,31.6,17.6,30.42,NE,52,3.0,-999.0,61,-99.99,,,0.00,0.0,cwc,2013-02-03 03:05:00,
2013-02-02 20:10:00,31.5,17.5,30.42,NE,52,3.0,-999.0,61,-99.99,,,0.00,0.0,cwc,2013-02-03 03:10:00,
2013-02-02 20:15:00,31.4,17.4,30.42,NE,52,4.0,-999.0,61,-99.99,,,0.00,0.0,cwc,2013-02-03 03:15:00,
2013-02-02 20:20:00,31.1,17.8,30.42,NE,52,3.0,-999.0,63,-99.99,,,0.00,0.0,cwc,2013-02-03 03:20:00,
2013-02-02 20:25:00,31.0,17.3,30.42,NE,53,2.0,-999.0,62,-99.99,,,0.00,0.0,cwc,2013-02-03 03:25:00,
2013-02-02 20:30:00,31.0,17.3,30.42,NE,53,3.0,-999.0,62,-99.99,,,0.00,0.0,cwc,2013-02-03 03:30:00,
2013-02-02 20:35:00,31.3,17.3,30.42,NE,52,2.0,-999.0,61,-99.99,,,0.00,0.0,cwc,2013-02-03 03:35:00,
2013-02-02 20:40:00,31.0,17.7,30.42,NE,53,3.0,-999.0,63,-99.99,,,0.00,0.0,cwc,2013-02-03 03:40:00,
2013-02-02 20:45:00,30.6,17.3,30.42,NE,53,4.0,-999.0,63,-99.99,,,0.00,0.0,cwc,2013-02-03 03:45:00,
2013-02-02 20:50:00,30.4,17.1,30.42,NE,53,2.0,-999.0,63,-99.99,,,0.00,0.0,cwc,2013-02-03 03:50:00,
2013-02-02 20:55:00,30.2,17.2,30.43,NE,53,5.0,-999.0,64,-99.99,,,0.00,0.0,cwc,2013-02-03 03:55:00,
2013-02-02 21:00:00,29.9,17.3,30.42,NE,53,3.0,-999.0,65,-99.99,,,0.00,0.0,cwc,2013-02-03 04:00:00,
2013-02-02 21:10:00,30.1,17.1,30.42,NE,53,3.0,-999.0,64,-99.99,,,0.00,0.0,cwc,2013-02-03 04:10:00,
2013-02-02 21:15:00,30.1,17.5,30.43,NE,53,3.0,-999.0,65,-99.99,,,0.00,0.0,cwc,2013-02-03 04:15:00,
2013-02-02 21:20:00,29.8,17.2,30.43,NE,53,2.0,-999.0,65,-99.99,,,0.00,0.0,cwc,2013-02-03 04:20:00,
2013-02-02 21:25:00,29.7,17.1,30.43,NE,53,1.0,-999.0,65,-99.99,,,0.00,0.0,cwc,2013-02-03 04:25:00,
2013-02-02 21:30:00,29.6,17.0,30.43,NE,53,0.0,-999.0,65,-99.99,,,0.00,0.0,cwc,2013-02-03 04:30:00,
2013-02-02 21:35:00,29.5,16.9,30.43,NE,54,3.0,-999.0,65,-99.99,,,0.00,0.0,cwc,2013-02-03 04:35:00,
2013-02-02 21:40:00,29.4,17.2,30.43,NE,53,3.0,-999.0,66,-99.99,,,0.00,0.0,cwc,2013-02-03 04:40:00,
2013-02-02 21:45:00,29.1,16.9,30.43,NE,53,4.0,-999.0,66,-99.99,,,0.00,0.0,cwc,2013-02-03 04:45:00,
2013-02-02 21:55:00,28.6,17.1,30.43,NE,55,3.0,-999.0,68,-99.99,,,0.00,0.0,cwc,2013-02-03 04:55:00,
2013-02-02 22:00:00,28.4,16.9,30.43,NE,55,1.0,-999.0,68,-99.99,,,0.00,0.0,cwc,2013-02-03 05:00:00,
2013-02-02 22:05:00,28.3,16.8,30.43,NE,55,0.0,-999.0,68,-99.99,,,0.00,0.0,cwc,2013-02-03 05:05:00,
2013-02-02 22:10:00,28.2,16.7,30.43,NE,55,3.0,-999.0,68,-99.99,,,0.00,0.0,cwc,2013-02-03 05:10:00,
2013-02-02 22:15:00,28.1,16.6,30.43,NE,55,0.0,-999.0,68,-99.99,,,0.00,0.0,cwc,2013-02-03 05:15:00,
2013-02-02 22:20:00,28.0,16.8,30.43,NE,55,2.0,-999.0,69,-99.99,,,0.00,0.0,cwc,2013-02-03 05:20:00,
2013-02-02 22:30:00,27.6,16.4,30.43,NE,55,2.0,-999.0,69,-99.99,,,0.00,0.0,cwc,2013-02-03 05:30:00,
2013-02-02 22:35:00,27.6,16.4,30.43,NE,55,1.0,-999.0,69,-99.99,,,0.00,0.0,cwc,2013-02-03 05:35:00,
2013-02-02 22:40:00,27.5,16.7,30.43,NE,55,3.0,-999.0,70,-99.99,,,0.00,0.0,cwc,2013-02-03 05:40:00,
2013-02-02 22:45:00,27.2,16.4,30.43,NE,55,2.0,-999.0,70,-99.99,,,0.00,0.0,cwc,2013-02-03 05:45:00,
2013-02-02 22:50:00,27.1,16.3,30.43,NE,55,1.0,-999.0,70,-99.99,,,0.00,0.0,cwc,2013-02-03 05:50:00,
2013-02-02 22:55:00,27.2,16.4,30.43,NE,55,2.0,-999.0,70,-99.99,,,0.00,0.0,cwc,2013-02-03 05:55:00,
2013-02-02 23:00:00,27.1,16.3,30.43,NE,55,1.0,-999.0,70,-99.99,,,0.00,0.0,cwc,2013-02-03 06:00:00,
2013-02-02 23:05:00,26.8,16.4,30.42,NE,55,2.0,-999.0,71,-99.99,,,0.00,0.0,cwc,2013-02-03 06:05:00,
2013-02-02 23:10:00,26.8,16.0,30.43,NE,55,1.0,-999.0,70,-99.99,,,0.00,0.0,cwc,2013-02-03 06:10:00,
2013-02-02 23:15:00,26.9,16.1,30.42,NE,55,2.0,-999.0,70,-99.99,,,0.00,0.0,cwc,2013-02-03 06:15:00,
2013-02-02 23:20:00,26.8,16.0,30.42,NE,55,2.0,-999.0,70,-99.99,,,0.00,0.0,cwc,2013-02-03 06:20:00,
2013-02-02 23:25:00,26.7,15.9,30.42,NE,55,0.0,-999.0,70,-99.99,,,0.00,0.0,cwc,2013-02-03 06:25:00,
2013-02-02 23:30:00,26.5,15.7,30.42,NE,55,2.0,-999.0,70,-99.99,,,0.00,0.0,cwc,2013-02-03 06:30:00,
2013-02-02 23:35:00,26.4,15.6,30.42,NE,55,0.0,-999.0,70,-99.99,,,0.00,0.0,cwc,2013-02-03 06:35:00,
2013-02-02 23:40:00,26.2,15.8,30.42,NE,55,1.0,-999.0,71,-99.99,,,0.00,0.0,cwc,2013-02-03 06:40:00,
2013-02-02 23:45:00,26.0,15.9,30.42,NE,55,0.0,-999.0,72,-99.99,,,0.00,0.0,cwc,2013-02-03 06:45:00,
2013-02-02 23:50:00,25.8,15.7,30.41,NE,55,0.0,-999.0,72,-99.99,,,0.00,0.0,cwc,2013-02-03 06:50:00,
2013-02-02 23:55:00,25.7,15.6,30.41,NE,55,0.0,-999.0,72,-99.99,,,0.00,0.0,cwc,2013-02-03 06:55:00,